Regional Weather Roundup
Issued by NWS

Home | Current Version | Previous Version | Text Only | Print | Product List | Glossary On
Versions: 1 2 3 4 5 6 7 8 9 10 11 12 13 14 15 16 17 18 19 20 21 22 23 24 25 26 27 28 29 30 31 32 33 34 35 36 37 38 39 40 41 42 43 44 45 46 47 48 49 50
000
ASUS46 KSEW 211910
RWRWA

WASHINGTON REGIONAL WEATHER ROUNDUP
NATIONAL WEATHER SERVICE SEATTLE WA
1100 AM PST TUE FEB 21 2017

NOTE:"FAIR" INDICATES FEW OR NO CLOUDS BELOW 12,000 FEET WITH NO
SIGNIFICANT WEATHER AND/OR OBSTRUCTIONS TO VISIBILITY.

WAZ507-509-555>559-212000-
SEATTLE, TACOMA, EVERETT, AND VICINITY

CITY           SKY/WX    TMP DP  RH WIND       PRES   REMARKS
EVERETT        CLOUDY    42  40  92 NW9       29.88R
BOEING FIELD   CLOUDY    45  42  89 NW10      29.90R
RENTON         LGT RAIN  44  42  93 N3        29.90R
SEATAC AIRPORT CLOUDY    44  41  89 N9        29.89R
JBLM-MCCHORD   CLOUDY    45  45 100 VRB6      29.90R
PUYALLUP       LGT RAIN  43  43 100 CALM      29.90R
BREMERTON      CLOUDY    43  39  87 NE8       29.92R
JBLM-FT LEWIS  CLOUDY    44  44 100 SW5       29.90R
TACOMA NARROWS CLOUDY    44  42  93 NW3       29.91R
$$

WAZ001-503-506-510-514-515-212000-
NORTH INTERIOR

CITY           SKY/WX    TMP DP  RH WIND       PRES   REMARKS
BELLINGHAM     CLOUDY    43  38  82 NW6       29.90R
FRIDAY HARBOR  MOSUNNY   48  36  63 VRB7      29.91R
EASTSOUND      PTSUNNY   43  37  81 N12       29.90R
PORT ANGELES   CLOUDY    44  42  93 NW9       29.91R
EDIZ HOOK      CLOUDY    45  41  86 W12       29.92R
PORT TOWNSEND  CLOUDY    45  41  87 W5G15     29.91R
NAS WHIDBEY    PTSUNNY   46  36  68 NW12      29.94R
ARLINGTON      CLOUDY    45  34  65 N8        29.91R
BURLINGTON     CLOUDY    45  39  81 NW7       29.90R
$$

WAZ020-022-039-040-504-511-512-212000-
SOUTHWEST INTERIOR

CITY           SKY/WX    TMP DP  RH WIND       PRES   REMARKS
SHELTON        CLOUDY    45  41  86 W8        29.88R
OLYMPIA        CLOUDY    45  44  97 SW3       29.91R
CHEHALIS       CLOUDY    46  43  87 CALM      29.91R
KELSO          CLOUDY    46  44  93 NW5       29.93R
VANCOUVER      LGT RAIN  46  45  96 SW5       29.93R
SCAPPOOSE, OR  CLOUDY    48  43  82 W7        29.92R
PORTLAND, OR   LGT RAIN  46  43  89 W8        29.93R
$$

WAZ021-516-517-212000-
WASHINGTON COAST

CITY           SKY/WX    TMP DP  RH WIND       PRES   REMARKS
FORKS          SUNNY     45  34  65 NW15G22   29.94R
HOQUIAM        PTSUNNY   45  41  86 W9        29.93R
ASTORIA, OR    MOSUNNY   48  39  71 NW12      29.95R
$$

WAZ019-023-024-040-567>569-212000-
CASCADE MOUNTAINS AND COLUMBIA GORGE

CITY           SKY/WX    TMP DP  RH WIND       PRES   REMARKS
STAMPEDE PASS  NOT AVBL
TROUTDALE, OR  LGT RAIN  47  44  90 SW10      29.93R
THE DALLES, OR CLOUDY    43  39  86 NW8       29.87R
$$

WAZ026-027-041>044-520-521-212000-
EAST SLOPES

CITY           SKY/WX    TMP DP  RH WIND       PRES   REMARKS
OMAK           CLOUDY    37  33  85 CALM      29.78S
WENATCHEE      CLOUDY    35  34  96 W6        29.78R
ELLENSBURG     CLOUDY    38  33  82 CALM      29.76R HAZE
YAKIMA         LGT RAIN  41  37  86 NW3       29.80R
SUNNYSIDE ARPT LGT RAIN  35  35  99 W6        29.82R
$$

WAZ028-034-035-212000-
COLUMBIA BASIN

CITY           SKY/WX    TMP DP  RH WIND       PRES   REMARKS
EPHRATA        CLOUDY    38  31  76 N6        29.77R
MOSES LAKE     LGT RAIN  37  35  92 N5        29.78R
PASCO          LGT RAIN  40  37  89 W9        29.83R
HERMISTON, OR  RAIN      39  37  92 NW6       29.82R FOG
$$

WAZ036>038-212000-
NORTHEAST WASHINGTON

CITY           SKY/WX    TMP DP  RH WIND       PRES   REMARKS
SPOKANE GEIGER SNOW      34  32  92 N5        29.70R VSB 1/2
SPOKANE FELTS  LGT SNOW  35  33  92 CALM      29.72R FOG
FAIRCHILD AFB  LGT SNOW  34  34 100 N7        29.69R FOG
COEURDALENE,ID LGT SNOW  35  34  96 CALM      29.70R FOG
DEER PARK      LGT SNOW  33  31  92 NW5       29.72R FOG
$$

WAZ029>033-212000-
SOUTHEAST WASHINGTON

CITY           SKY/WX    TMP DP  RH WIND       PRES   REMARKS
PULLMAN        LGT RAIN  39  37  92 W10       29.71R
LEWISTON, ID   LGT RAIN  43  41  93 NW5       29.71R FOG
WALLA WALLA    LGT RAIN  37  36  96 SW5       29.76R FOG
PENDLETON, OR  LGT RAIN  38  37  97 NW10      29.77R
$$



USA.gov is the U.S. government's official web portal to all federal, state and local government web resources and services.